Temperature
12 12 12 12 13 13 13 14 15 16 16 18 18 18 18 17 16 16 16 16 16 16 17 17 17 17 17 16 16 16 15 15 14 14 13 12 12 11 11 10 10 10 9 9
11 11 11 11 12 13 13 14 15 15 16 18 18 17 17 17 16 15 16 16 16 16 16 17 17 17 16 16 16 15 15 14 14 13 12 12 11 11 10 10 9 9 9 8
10 11 10 11 12 13 13 13 14 14 16 17 17 16 16 16 16 15 15 16 16 16 16 17 17 16 16 16 15 15 14 14 13 13 12 11 11 10 10 9 9 8 8 7
9 9 9 13 14 14 14 14 14 15 16 16 16 16 15 15 15 15 15 16 16 16 16 16 16 16 16 15 15 14 14 13 13 12 11 11 10 10 9 9 8 8 7 7
8 9 10 12 12 13 13 13 15 14 15 15 14 13 14 15 15 15 15 15 15 16 16 16 16 15 15 15 14 14 13 13 12 11 11 10 9 9 8 8 8 7 7 7
8 8 10 13 13 12 13 13 15 14 14 14 13 13 15 15 15 15 15 15 15 15 15 15 15 15 15 14 14 14 13 12 12 11 10 9 9 8 8 7 7 6 6 6
8 8 11 13 11 11 12 14 14 13 13 13 13 14 14 14 14 14 14 14 15 14 14 14 14 14 14 14 13 13 12 12 11 10 9 9 8 8 7 7 6 6 5 5
8 8 10 11 10 12 13 13 12 12 12 12 13 13 13 13 13 13 14 14 14 14 14 13 13 13 13 13 13 12 12 11 10 9 9 8 7 7 6 6 5 5 4 4
9 10 12 11 11 12 12 12 12 12 12 12 12 12 12 12 12 13 13 13 13 13 13 13 13 12 12 12 12 12 11 10 9 9 8 7 7 6 6 5 4 4 3 3
9 10 11 10 11 11 11 11 12 12 12 12 12 12 11 12 12 12 12 12 12 12 12 12 12 12 11 12 11 11 10 9 8 8 7 6 6 5 5 4 4 3 2 2
9 10 10 10 10 11 11 11 11 11 11 11 11 11 11 11 11 11 11 11 11 11 11 11 11 11 11 11 10 10 9 8 7 7 6 6 5 4 4 3 3 2 2 1
9 10 10 11 11 11 10 10 10 10 10 11 11 11 11 11 11 11 11 11 11 11 10 10 10 10 10 9 9 9 8 7 7 6 5 5 4 3 3 2 2 1 1 0
10 9 9 10 10 10 10 10 10 10 10 10 10 10 10 10 10 10 10 10 10 10 10 9 9 9 9 8 8 7 7 6 6 5 4 4 3 3 2 1 1 1 0 -0
8 8 8 8 8 9 9 9 9 9 9 9 9 9 9 9 9 9 9 9 9 9 9 9 8 8 8 7 7 6 6 5 5 4 4 3 2 2 1 1 0 -0 -1 -1
7 7 7 7 7 8 8 8 8 8 8 8 9 9 9 9 8 9 9 9 8 8 8 8 7 7 7 6 6 5 5 4 4 3 3 2 1 1 0 -0 -1 -1 -2 -2
5 5 6 6 6 6 6 6 7 7 7 7 8 8 8 7 7 7 7 7 7 7 7 7 6 6 6 5 5 4 4 3 3 2 1 1 0 -0 -1 -1 -2 -2 -3 -3
4 4 4 4 5 5 5 5 6 6 6 6 7 6 6 6 6 6 6 6 6 6 6 5 5 5 4 4 4 3 3 2 2 1 1 0 -0 -1 -2 -2 -3 -3 -3 -4
3 3 3 3 3 4 4 4 4 5 5 5 5 5 5 5 5 5 5 5 5 4 4 4 4 4 3 3 3 2 2 1 1 0 -0 -1 -2 -2 -3 -3 -3 -4 -4 -4
1 1 2 2 2 3 3 3 3 4 4 4 4 4 4 4 4 4 4 4 4 4 3 3 3 3 2 2 2 1 1 0 -0 -1 -1 -2 -3 -3 -3 -4 -4 -5 -5 -5
1 1 1 1 1 2 2 2 2 3 3 3 3 3 3 3 3 3 2 2 3 3 3 2 2 2 1 1 1 0 -0 -1 -1 -2 -2 -3 -3 -4 -4 -4 -5 -5 -5 -6
-0 0 0 0 0 1 1 1 1 2 2 2 2 2 2 2 2 2 1 2 2 2 1 1 1 1 0 -0 -0 -1 -1 -2 -2 -3 -3 -3 -4 -4 -5 -5 -5 -6 -6 -6
-1 -1 -1 -0 -0 -0 0 0 1 1 1 1 1 1 1 1 1 1 1 1 1 1 0 -0 -0 -0 -1 -1 -1 -2 -2 -3 -3 -3 -4 -4 -5 -5 -5 -5 -6 -6 -6 -7
-2 -2 -2 -1 -1 -1 -1 -1 -0 -0 -0 0 0 0 0 0 0 0 -0 -0 -0 -0 -1 -1 -1 -1 -2 -2 -2 -3 -3 -3 -4 -4 -4 -5 -5 -5 -6 -6 -6 -7 -7 -7
-3 -3 -3 -2 -2 -2 -2 -2 -2 -1 -1 -1 -1 -1 -1 -1 -1 -1 -1 -1 -1 -2 -2 -2 -2 -3 -3 -3 -3 -3 -4 -4 -4 -5 -5 -6 -6 -6 -6 -7 -7 -7 -7 -8
-4 -4 -3 -3 -3 -3 -3 -3 -3 -3 -2 -2 -2 -2 -2 -2 -2 -2 -2 -2 -3 -3 -3 -3 -3 -3 -4 -4 -4 -4 -4 -5 -5 -5 -6 -6 -6 -7 -7 -7 -7 -8 -8 -8
-5 -5 -4 -4 -4 -4 -4 -4 -4 -4 -4 -3 -3 -3 -3 -3 -3 -3 -3 -4 -4 -4 -4 -4 -4 -4 -4 -4 -5 -5 -5 -5 -6 -6 -6 -6 -7 -7 -7 -7 -8 -8 -8 -8
-6 -6 -5 -5 -5 -5 -5 -5 -5 -5 -5 -4 -5 -5 -5 -5 -4 -5 -5 -5 -5 -5 -5 -5 -5 -5 -5 -5 -5 -6 -6 -6 -6 -7 -7 -7 -7 -7 -8 -8 -8 -8 -9 -9
Wind_Speed
14 11 10 14 18 21 24 24 21 22 23 21 17 14 12 10 9 9 9 9 10 10 9 9 9 9 9 9 9 9 10 10 10 9 9 9 9 8 8 8 8 7 7 7
15 13 12 15 19 22 25 26 27 26 26 21 18 16 15 14 11 11 11 11 11 11 10 10 10 10 9 9 9 10 10 10 9 8 9 9 8 8 8 7 7 7 7 7
12 10 8 16 22 23 22 23 23 27 26 18 18 18 17 15 14 13 13 12 12 12 11 10 10 10 10 10 9 10 10 9 9 9 9 9 8 8 8 7 7 7 7 7
6 7 13 13 11 19 22 23 23 23 21 19 19 18 17 16 15 15 14 13 12 11 10 9 9 9 9 9 10 10 9 9 9 9 9 8 8 8 7 6 6 6 6 6
6 10 13 13 9 13 17 21 20 23 22 20 13 11 16 16 16 16 15 13 11 9 9 8 9 9 10 10 10 10 10 10 9 9 9 9 8 8 6 6 6 5 5 6
8 9 12 11 6 7 9 16 14 17 20 18 10 11 14 11 12 13 12 10 8 7 7 8 9 10 10 10 10 11 10 9 9 9 9 9 8 7 5 5 5 4 4 5
14 12 12 9 3 8 10 9 4 11 14 14 14 16 11 6 8 9 8 8 7 7 7 7 9 10 11 10 10 9 8 8 8 8 8 8 7 6 5 5 4 4 4 4
12 12 13 6 8 11 9 5 3 5 8 10 13 14 12 9 8 7 7 6 6 6 6 6 8 10 10 10 8 8 8 8 8 8 7 6 6 6 5 5 5 4 4 3
11 13 9 9 12 11 7 7 7 7 7 8 10 12 11 10 10 9 7 6 6 6 6 6 8 9 10 8 9 9 9 9 8 7 6 6 7 6 5 5 4 4 3 3
12 16 14 13 14 12 10 10 10 9 9 9 10 11 11 10 9 8 7 6 5 6 7 6 7 8 8 8 9 10 9 8 8 7 6 6 5 5 5 5 4 4 4 3
17 18 14 16 17 17 14 13 13 12 11 11 11 12 11 10 9 7 6 5 6 7 7 7 7 7 7 9 10 10 9 8 7 6 6 5 4 3 4 4 4 4 4 4
16 13 11 14 13 14 14 14 14 14 13 12 11 12 10 10 8 6 6 5 6 7 6 6 7 7 8 9 10 10 9 8 6 6 5 5 4 2 1 2 2 3 4 4
19 16 16 17 16 14 15 15 15 13 13 12 11 10 10 9 7 6 6 7 7 7 7 7 7 8 8 9 9 9 9 8 6 6 5 5 4 4 2 1 2 3 3 4
17 15 17 17 16 15 14 13 12 12 11 10 9 8 7 7 6 7 7 7 6 6 6 7 7 8 8 9 9 8 8 7 6 6 5 5 5 4 3 3 2 1 2 3
16 15 16 15 15 14 12 10 10 11 10 9 7 7 7 7 7 6 5 4 5 5 6 7 7 7 8 9 9 9 7 6 5 5 4 4 4 3 3 3 3 2 2 2
14 14 14 15 16 14 12 11 11 12 10 9 8 7 7 6 5 3 4 5 6 7 7 7 7 7 8 9 8 7 6 7 6 5 5 4 4 3 3 3 3 3 3 2
11 13 13 13 13 13 12 11 11 11 9 8 7 5 4 4 4 3 3 4 4 4 5 7 7 7 8 8 8 6 6 6 7 5 4 4 4 4 3 3 3 3 3 3
11 12 12 11 11 11 11 9 9 8 8 7 5 5 5 6 6 5 4 4 5 4 4 5 7 8 7 7 6 5 5 5 5 4 4 3 3 3 3 3 3 3 3 3
8 9 9 9 9 9 8 8 7 6 5 5 5 5 5 5 5 5 6 6 6 5 4 6 8 8 7 7 6 5 5 5 4 4 3 4 3 3 3 3 3 3 3 3
6 6 6 6 6 6 7 6 5 4 3 4 4 4 4 4 5 6 6 4 3 3 5 7 7 6 6 6 6 5 5 5 4 4 3 3 3 2 2 3 3 3 4 4
5 5 5 4 4 4 4 5 4 3 2 3 4 5 4 4 5 5 5 4 3 5 6 7 5 5 5 5 5 4 5 4 4 4 3 3 3 3 3 3 3 4 4 4
5 4 4 3 3 3 3 2 2 2 2 3 4 5 5 5 5 4 3 3 5 6 5 4 4 5 6 5 3 4 4 4 3 3 3 2 3 3 3 3 3 4 4 4
4 4 3 3 2 2 2 1 0 1 3 3 4 5 5 5 4 4 4 3 5 6 4 4 6 7 6 4 3 4 4 3 3 2 2 2 3 3 3 4 4 4 4 5
3 3 2 2 1 2 2 3 3 3 4 4 4 4 5 5 3 2 4 6 7 6 4 6 8 7 5 3 3 3 3 3 2 2 2 2 2 3 3 4 4 4 5 6
3 2 2 2 2 2 2 3 4 5 5 5 5 5 4 3 4 4 5 6 7 7 5 6 7 6 4 3 3 2 2 2 2 2 2 2 3 3 3 4 4 5 5 6
3 3 2 2 2 2 2 3 3 3 3 4 4 4 4 5 6 5 5 5 6 6 5 4 4 4 3 2 2 2 1 1 1 1 2 3 3 4 4 4 6 5 6 6
3 3 2 3 3 2 2 3 3 3 3 4 4 4 4 5 5 6 6 5 4 4 3 3 3 2 2 2 1 1 1 1 1 2 2 3 3 4 4 5 5 5 6 7
Wind_Direction
251 257 234 230 227 219 221 230 240 246 247 251 258 265 270 271 264 255 247 237 229 226 224 216 207 201 196 193 188 184 186 191 196 194 193 194 196 198 199 202 205 207 211 216
243 245 243 244 236 228 228 234 241 251 254 254 260 264 265 264 261 255 251 245 237 231 224 216 209 201 193 191 186 183 187 191 188 186 187 190 193 194 196 199 201 203 208 213
241 240 251 247 233 226 227 229 234 243 249 256 257 256 257 259 260 257 254 251 243 234 224 217 208 199 194 188 180 182 186 186 184 184 185 188 187 190 194 197 199 204 208 212
238 221 236 250 231 225 232 237 235 243 252 252 254 261 262 258 258 258 255 252 246 236 225 216 204 194 186 177 178 181 184 184 183 183 183 182 185 190 193 195 199 206 211 215
215 236 256 261 242 221 227 243 239 242 250 255 262 271 261 255 251 251 251 249 246 235 221 206 194 184 174 176 178 181 186 185 183 181 180 181 186 190 190 191 198 205 211 215
217 231 241 251 227 212 221 251 245 238 244 247 234 247 256 254 248 249 250 246 236 220 205 197 190 178 176 180 182 188 188 183 179 180 180 183 185 184 184 187 192 195 209 217
223 234 251 257 197 168 207 251 252 233 241 238 227 236 259 261 254 251 248 240 225 207 201 196 181 175 182 184 192 188 176 171 172 176 178 178 175 176 175 176 182 194 205 218
217 228 242 201 169 198 238 280 267 255 248 244 245 252 258 259 260 254 245 235 217 206 204 192 180 180 185 191 185 168 163 165 168 169 165 167 168 170 174 176 183 194 202 216
216 231 251 200 217 236 259 262 264 270 272 260 260 263 262 256 254 251 245 236 219 207 200 192 187 188 190 184 166 161 161 164 164 162 164 168 171 172 176 182 190 199 206 217
242 246 250 246 250 258 258 262 269 270 272 263 265 268 267 261 252 247 242 233 216 203 200 199 194 194 189 170 164 161 163 163 162 164 165 168 171 176 182 190 196 202 212 220
245 253 262 257 254 258 260 267 272 271 268 263 263 267 264 261 253 243 235 226 212 207 205 199 190 189 177 169 165 162 161 161 163 166 166 168 171 182 195 204 206 206 216 219
245 249 252 264 265 261 259 260 262 267 274 273 263 261 261 257 253 243 233 219 210 208 202 195 185 181 175 172 168 161 160 162 165 168 167 167 163 151 123 205 207 228 232 235
255 263 264 272 276 270 264 263 263 261 264 269 268 259 255 256 250 235 226 216 210 205 200 191 183 179 174 171 169 167 165 164 164 168 169 170 172 172 170 144 176 213 220 234
256 261 265 266 268 270 268 268 268 267 268 269 266 258 249 246 241 230 225 216 204 192 189 184 179 177 171 167 165 164 160 160 164 169 171 174 178 181 182 186 205 228 220 228
256 254 258 268 273 274 272 267 266 267 269 269 263 252 241 233 233 230 217 191 180 179 180 176 174 172 166 163 161 160 158 160 162 164 167 173 174 177 184 194 204 213 224 225
265 261 261 265 268 271 269 262 258 262 265 264 261 252 242 234 225 205 187 178 180 185 181 175 173 166 161 158 156 156 157 154 158 162 167 171 174 178 186 194 202 212 221 224
266 264 265 266 266 267 266 264 260 260 261 257 256 241 214 197 188 185 184 182 176 172 169 165 157 150 153 156 155 154 153 157 158 163 171 175 179 186 192 199 208 220 232 234
260 263 264 264 265 267 270 270 267 262 257 254 235 212 200 195 196 187 167 145 132 129 141 148 146 147 150 152 152 152 155 160 165 168 169 176 182 188 195 206 215 226 236 238
266 266 267 267 265 262 265 268 269 266 256 231 213 209 204 195 178 162 154 151 153 154 152 144 143 144 147 149 147 150 154 156 159 163 166 173 181 188 196 208 221 231 239 246
277 279 278 279 277 269 267 269 266 260 244 212 196 188 179 168 156 152 151 152 155 146 144 146 145 144 146 149 146 151 155 158 160 164 168 178 185 196 208 218 228 239 246 252
299 293 290 288 291 289 276 266 253 238 211 183 180 177 165 152 150 150 148 142 121 122 135 140 141 143 146 150 148 152 155 160 166 171 177 184 193 206 218 228 237 245 251 256
317 311 304 298 296 300 301 283 246 194 163 156 149 143 140 140 141 132 124 133 138 135 136 143 141 143 147 143 146 150 154 158 165 172 181 192 203 216 228 236 246 252 256 259
322 321 321 319 313 323 4 6 38 132 141 143 147 148 148 148 150 146 140 132 135 136 134 141 144 141 135 129 139 145 149 155 166 178 192 205 217 226 235 244 251 254 257 262
334 336 338 347 43 65 54 41 55 76 92 99 112 127 134 131 118 107 121 135 137 129 128 138 139 134 121 122 134 142 149 157 166 182 201 218 229 236 241 246 252 257 260 263
350 357 16 48 58 53 60 78 84 84 84 86 90 93 102 112 123 127 126 133 133 122 123 132 130 121 115 125 134 142 154 169 183 205 221 230 238 244 249 253 256 261 263 264
6 11 18 34 52 66 78 96 97 95 96 93 85 81 86 96 108 112 113 117 116 110 110 117 121 113 114 122 128 141 158 175 204 229 234 243 246 251 255 258 264 265 266 267
24 32 41 46 50 59 75 88 96 96 95 101 97 89 91 96 100 102 102 103 101 97 98 100 103 104 108 113 122 143 183 216 237 247 251 255 257 259 260 264 268 269 270 269
Height
1440 1439 1441 1439 1439 1441 1441 1436 1433 1423 1423 1419 1419 1420 1421 1421 1421 1421 1421 1422 1422 1423 1425 1426 1428 1429 1431 1433 1435 1436 1438 1440 1441 1443 1444 1446 1447 1448 1449 1450 1450 1451 1452 1452
1440 1437 1437 1435 1431 1431 1431 1428 1425 1422 1416 1414 1416 1417 1417 1417 1417 1416 1416 1416 1417 1418 1419 1420 1422 1424 1425 1427 1429 1431 1433 1435 1436 1438 1439 1440 1442 1443 1444 1445 1445 1446 1446 1446
1435 1434 1436 1430 1419 1421 1420 1418 1418 1415 1409 1411 1412 1411 1412 1412 1412 1411 1411 1411 1411 1412 1413 1414 1416 1418 1420 1422 1424 1426 1427 1429 1431 1432 1433 1435 1436 1437 1438 1439 1440 1440 1440 1441
1434 1436 1435 1409 1405 1407 1408 1407 1408 1406 1403 1405 1405 1405 1406 1405 1405 1404 1404 1405 1405 1406 1407 1409 1411 1413 1415 1417 1418 1420 1422 1424 1425 1427 1428 1429 1431 1432 1433 1433 1434 1435 1435 1435
1432 1427 1416 1405 1403 1404 1404 1400 1398 1399 1398 1399 1401 1401 1398 1397 1398 1398 1398 1399 1399 1400 1401 1403 1405 1407 1409 1411 1413 1415 1416 1418 1419 1421 1423 1424 1425 1426 1427 1428 1429 1429 1429 1429
1426 1422 1412 1394 1394 1397 1401 1396 1390 1391 1390 1392 1397 1398 1388 1389 1391 1391 1392 1392 1393 1394 1395 1397 1399 1401 1403 1405 1407 1409 1411 1413 1414 1416 1417 1419 1420 1421 1422 1423 1423 1423 1423 1423
1417 1413 1398 1390 1394 1396 1399 1387 1383 1383 1384 1386 1388 1385 1384 1385 1385 1385 1385 1386 1387 1388 1389 1391 1393 1395 1397 1399 1402 1404 1406 1408 1409 1411 1413 1414 1415 1416 1417 1417 1418 1418 1418 1418
1408 1407 1397 1388 1391 1389 1382 1380 1381 1380 1380 1380 1380 1379 1380 1381 1380 1379 1380 1380 1381 1382 1384 1385 1387 1389 1391 1394 1396 1399 1401 1403 1404 1406 1407 1409 1410 1411 1411 1412 1412 1412 1412 1412
1391 1386 1380 1381 1380 1378 1379 1379 1378 1377 1377 1377 1376 1375 1374 1375 1375 1374 1375 1375 1376 1377 1378 1380 1382 1384 1386 1389 1391 1393 1395 1397 1399 1401 1402 1404 1405 1405 1406 1406 1407 1406 1406 1406
1383 1376 1376 1377 1376 1375 1375 1374 1374 1374 1374 1373 1371 1370 1369 1369 1369 1369 1369 1370 1370 1372 1373 1374 1377 1379 1381 1383 1386 1388 1390 1392 1394 1395 1397 1398 1399 1400 1401 1401 1401 1401 1401 1401
1375 1371 1373 1370 1371 1370 1371 1370 1370 1369 1369 1368 1367 1365 1364 1364 1363 1363 1363 1364 1365 1366 1368 1369 1371 1373 1375 1378 1380 1382 1384 1386 1388 1390 1392 1393 1394 1395 1396 1396 1397 1397 1396 1396
1365 1364 1366 1363 1364 1365 1365 1364 1364 1364 1362 1361 1361 1360 1359 1358 1358 1358 1358 1359 1360 1361 1363 1364 1365 1367 1370 1372 1374 1376 1378 1380 1382 1384 1386 1387 1388 1389 1390 1392 1392 1392 1391 1391
1359 1359 1360 1358 1358 1359 1358 1357 1357 1357 1356 1354 1354 1354 1353 1352 1352 1352 1353 1354 1355 1356 1357 1358 1360 1361 1364 1366 1369 1371 1373 1375 1377 1379 1381 1382 1383 1384 1384 1385 1386 1386 1386 1386
1354 1354 1352 1351 1351 1351 1350 1350 1350 1349 1349 1348 1347 1347 1347 1346 1346 1346 1347 1348 1349 1350 1352 1353 1354 1356 1358 1361 1364 1366 1368 1371 1373 1374 1376 1377 1378 1379 1379 1380 1380 1381 1381 1381
1346 1346 1345 1344 1343 1343 1343 1343 1343 1341 1341 1340 1340 1340 1340 1340 1340 1340 1341 1343 1344 1345 1346 1347 1349 1351 1353 1356 1359 1361 1364 1366 1368 1370 1371 1373 1374 1374 1375 1376 1376 1376 1376 1376
1338 1338 1338 1337 1336 1336 1336 1336 1336 1334 1334 1334 1334 1334 1334 1334 1334 1335 1336 1337 1338 1339 1340 1342 1344 1346 1349 1352 1354 1357 1359 1361 1363 1365 1367 1368 1369 1370 1370 1371 1371 1371 1371 1371
1332 1331 1331 1330 1329 1329 1329 1329 1329 1328 1328 1328 1328 1328 1328 1328 1328 1329 1330 1332 1334 1335 1336 1338 1340 1342 1345 1348 1350 1352 1355 1357 1359 1361 1362 1363 1364 1365 1366 1366 1367 1367 1367 1367
1326 1325 1325 1324 1323 1323 1322 1322 1322 1322 1322 1321 1322 1322 1322 1323 1323 1324 1326 1328 1329 1331 1333 1335 1337 1339 1342 1344 1346 1348 1350 1352 1354 1356 1357 1359 1360 1361 1362 1362 1363 1363 1362 1362
1318 1318 1317 1316 1316 1316 1315 1315 1315 1315 1315 1316 1316 1316 1317 1318 1319 1321 1322 1324 1326 1328 1330 1332 1334 1336 1338 1340 1343 1345 1347 1348 1350 1352 1353 1355 1356 1357 1357 1358 1358 1358 1358 1357
1312 1311 1311 1310 1310 1310 1310 1309 1310 1310 1310 1311 1311 1312 1313 1314 1316 1317 1319 1321 1323 1325 1327 1329 1331 1333 1335 1337 1340 1341 1343 1345 1346 1348 1349 1351 1352 1353 1353 1354 1354 1354 1353 1353
1307 1306 1306 1305 1305 1304 1305 1305 1305 1305 1306 1307 1308 1308 1310 1312 1313 1315 1317 1319 1321 1323 1325 1328 1329 1331 1333 1335 1337 1338 1340 1342 1343 1345 1346 1347 1348 1349 1349 1349 1349 1349 1349 1348
1304 1303 1302 1301 1301 1300 1300 1301 1301 1301 1302 1303 1305 1306 1307 1309 1311 1313 1315 1317 1319 1321 1323 1325 1327 1329 1331 1332 1334 1336 1337 1339 1341 1342 1343 1343 1344 1344 1345 1345 1345 1344 1343 1343
1301 1300 1299 1298 1298 1297 1297 1297 1298 1298 1299 1301 1302 1304 1305 1307 1309 1311 1313 1315 1317 1319 1321 1323 1325 1327 1329 1330 1332 1333 1335 1336 1338 1339 1339 1340 1340 1340 1340 1340 1340 1339 1338 1337
1299 1298 1297 1297 1296 1295 1295 1295 1296 1297 1298 1299 1301 1302 1304 1305 1307 1310 1311 1313 1315 1317 1319 1322 1324 1325 1327 1328 1329 1331 1332 1333 1334 1335 1336 1336 1336 1336 1336 1335 1335 1334 1333 1332
1298 1297 1296 1295 1295 1294 1294 1294 1295 1296 1297 1298 1299 1301 1302 1304 1306 1308 1310 1312 1314 1316 1318 1321 1322 1324 1325 1326 1327 1328 1329 1330 1331 1332 1332 1332 1332 1332 1331 1330 1330 1329 1327 1326
1297 1296 1296 1295 1295 1294 1294 1295 1295 1296 1297 1297 1299 1300 1302 1303 1305 1307 1309 1311 1313 1315 1317 1318 1320 1321 1323 1324 1325 1326 1327 1327 1328 1328 1328 1328 1328 1327 1326 1325 1324 1323 1322 1320
1298 1297 1296 1295 1295 1295 1295 1295 1296 1297 1297 1298 1299 1301 1302 1303 1305 1307 1309 1311 1312 1314 1316 1317 1318 1320 1321 1322 1323 1323 1324 1324 1324 1324 1324 1324 1323 1322 1321 1320 1319 1318 1316 1314